1484856000.97,10418,3.31,74112.0,-9.29,-38.43,-38.79,0,*57
1484856002.27,10419,3.31,74112.3,-9.29,-38.49,-38.79,0,*5C
1484856003.51,10420,3.38,74118.3,-9.31,-38.43,-38.79,0,*55
1484856004.78,10421,3.38,74114.8,-9.31,-38.49,-38.79,0,*5E
1484856006.08,10422,3.38,74114.5,-9.29,-38.49,-38.79,0,*54
1484856007.36,10423,3.38,74116.3,-9.29,-38.49,-38.85,0,*56
1484856008.57,10424,3.31,74114.5,-9.31,-38.61,-38.85,0,*52
1484856009.82,10425,3.38,74116.3,-9.31,-38.43,-38.79,0,*50
1484856011.11,10426,3.38,74120.0,-9.29,-38.49,-38.79,0,*50
1484856012.33,10427,3.38,74118.8,-9.31,-38.61,-38.85,0,*51
1484856013.6,10428,3.31,74112.5,-9.31,-38.29,-38.67,0,*5E
1484856014.84,10429,3.31,74116.3,-9.31,-38.23,-38.61,0,*53
1484856016.11,10430,3.38,74116.3,-9.31,-38.23,-38.49,0,*51
1484856017.4,10431,3.31,74112.3,-9.29,-38.23,-38.67,0,*55
1484856018.66,10432,3.38,74118.0,-9.29,-38.23,-38.43,0,*50
1484856019.93,10433,3.38,74116.8,-9.29,-38.43,-38.79,0,*5E
1484856021.2,10434,3.38,74110.0,-9.31,-38.29,-38.67,0,*53
1484856022.47,10435,3.38,74116.3,-9.31,-38.29,-38.79,0,*5D
1484856023.74,10436,3.38,74114.0,-9.31,-38.49,-38.79,0,*58
1484856024.98,10437,3.38,74114.5,-9.31,-38.43,-38.79,0,*53
1484856026.27,10438,3.38,74116.0,-9.29,-38.29,-38.67,0,*56
1484856027.54,10439,3.38,74112.8,-9.31,-38.23,-38.49,0,*58
1484856028.84,10440,3.38,74112.5,-9.29,-38.29,-38.49,0,*55
1484856030.08,10441,3.38,74112.8,-9.31,-38.23,-38.61,0,*5D
1484856031.32,10442,3.38,74114.8,-9.31,-38.43,-38.67,0,*5E
1484856032.61,10443,3.38,74116.8,-9.29,-38.29,-38.67,0,*5A
1484856033.9,10444,3.38,74118.3,-9.29,-38.23,-38.49,0,*5B
1484856035.19,10445,3.38,74116.3,-9.29,-38.11,-38.49,0,*5B
1484856036.46,10446,3.38,74120.3,-9.29,-38.11,-38.43,0,*52
1484856037.75,10447,3.38,74118.5,-9.29,-38.23,-38.49,0,*58
1484856039.05,10448,3.38,74112.3,-9.29,-38.29,-38.67,0,*51
1484856040.31,10449,3.38,74114.5,-9.31,-38.23,-38.49,0,*5F
1484856041.58,10450,3.38,74114.0,-9.31,-38.23,-38.49,0,*57
1484856042.88,10451,3.38,74114.3,-9.29,-38.49,-38.79,0,*50
1484856044.14,10452,3.38,74110.8,-9.31,-38.23,-38.67,0,*59
1484856045.41,10453,3.38,74112.5,-9.29,-38.43,-38.79,0,*58
1484856046.68,10454,3.38,74114.8,-9.31,-38.49,-38.79,0,*5C
1484856047.95,10455,3.38,74118.3,-9.31,-38.23,-38.49,0,*52
1484856049.19,10456,3.38,74118.5,-9.27,-38.05,-38.23,0,*5E
1484856050.46,10457,3.38,74112.8,-9.29,-38.23,-38.61,0,*53
1484856051.73,10458,3.38,74114.0,-9.29,-38.29,-38.61,0,*56
1484856053.0,10459,3.38,74116.8,-9.29,-38.23,-38.43,0,*5D
1484856054.29,10460,3.38,74112.3,-9.29,-38.11,-38.29,0,*5A
1484856055.56,10461,3.38,74116.0,-9.29,-38.11,-38.43,0,*57
1484856056.85,10462,3.38,74112.8,-9.29,-38.29,-38.79,0,*56
1484856058.12,10463,3.38,74108.0,-9.31,-38.29,-38.79,0,*5E
1484856059.41,10464,3.38,74112.8,-9.29,-38.11,-38.49,0,*58
1484856060.71,10465,3.38,74116.0,-9.29,-38.49,-38.79,0,*57
1484856062.01,10466,3.38,74118.8,-9.29,-38.49,-38.67,0,*5B
1484856063.27,10467,3.38,74114.0,-9.29,-38.23,-38.61,0,*50
1484856064.54,10468,3.38,74116.0,-9.29,-38.23,-38.43,0,*5F
1484856065.81,10469,3.38,74114.8,-9.29,-38.11,-38.43,0,*5F
1484856067.08,10470,3.38,74112.5,-9.29,-38.05,-38.29,0,*5E
1484856068.35,10471,3.38,74112.8,-9.29,-38.23,-38.61,0,*57
1484856069.57,10472,3.38,74112.3,-9.27,-38.17,-38.43,0,*5D
1484856070.81,10473,3.38,74118.5,-9.27,-38.23,-38.55,0,*5C
1484856072.03,10474,3.38,74112.3,-9.27,-38.17,-38.61,0,*5B
1484856073.24,10475,3.38,74112.8,-9.27,-38.43,-38.73,0,*58
1484856074.5,10476,3.38,74118.8,-9.29,-38.43,-38.79,0,*5F
1484856075.77,10477,3.38,74112.0,-9.29,-38.23,-38.61,0,*51
1484856077.04,10478,3.38,74114.8,-9.29,-38.11,-38.61,0,*5F
1484856078.28,10479,3.38,74112.5,-9.31,-38.11,-38.43,0,*57
1484856079.54,10480,3.38,74114.5,-9.31,-38.29,-38.67,0,*5C
1484856080.84,10481,3.38,74116.8,-9.29,-38.23,-38.49,0,*52
1484856082.1,10482,3.38,74112.5,-9.29,-38.23,-38.43,0,*5B
1484856083.4,10483,3.38,74114.0,-9.29,-38.23,-38.49,0,*50
1484856084.69,10484,3.38,74112.0,-9.29,-38.29,-38.79,0,*5E
1484856085.96,10485,3.38,74112.5,-9.29,-38.43,-38.79,0,*53
1484856087.23,10486,3.38,74112.8,-9.29,-38.23,-38.61,0,*5F
1484856088.52,10487,3.38,74116.5,-9.29,-38.23,-38.49,0,*54
1484856089.82,10488,3.38,74114.8,-9.29,-38.49,-38.79,0,*54
1484856091.11,10489,3.38,74112.3,-9.29,-38.29,-38.67,0,*5C
1484856092.33,10490,3.38,74114.0,-9.27,-38.17,-38.55,0,*56
1484856093.56,10491,3.38,74108.0,-9.27,-38.23,-38.73,0,*54
1484856094.81,10492,3.38,74110.3,-9.27,-38.43,-38.79,0,*5B
1484856096.05,10493,3.38,74108.8,-9.27,-38.43,-38.79,0,*5A
1484856097.29,10494,3.38,74112.8,-9.29,-38.61,-38.85,0,*50
1484856098.59,10495,3.38,74114.8,-9.29,-38.29,-38.67,0,*51
1484856099.88,10496,3.38,74110.8,-9.29,-38.29,-38.67,0,*52
1484856101.15,10497,3.38,74112.0,-9.29,-38.05,-38.49,0,*51
1484856102.44,10498,3.38,74112.8,-9.29,-38.23,-38.79,0,*59
1484856103.71,10499,3.38,74118.3,-9.29,-38.43,-38.67,0,*51
1484856104.98,10500,3.38,74114.3,-9.29,-38.23,-38.43,0,*50
1484856106.25,10501,3.38,74118.8,-9.29,-38.29,-38.43,0,*5B
1484856107.55,10502,3.38,74110.0,-9.29,-38.49,-38.79,0,*57
1484856108.82,10503,3.38,74112.3,-9.29,-38.61,-38.79,0,*5C
1484856110.12,10504,3.38,74112.5,-9.29,-38.49,-38.79,0,*51
1484856111.38,10505,3.38,74114.8,-9.29,-38.43,-38.67,0,*55
1484856112.68,10506,3.38,74112.8,-9.29,-38.49,-38.67,0,*5C
1484856113.94,10507,3.38,74110.0,-9.29,-38.23,-38.61,0,*57
1484856115.21,10508,3.38,74114.8,-9.29,-38.23,-38.61,0,*58
1484856116.5,10509,3.38,74114.3,-9.29,-38.11,-38.49,0,*52
1484856117.8,10510,3.38,74112.0,-9.29,-38.29,-38.79,0,*52
1484856119.01,10511,3.38,74110.5,-9.27,-38.35,-38.61,0,*59
1484856120.23,10512,3.38,74114.3,-9.27,-38.05,-38.43,0,*59
1484856121.47,10513,3.38,74112.0,-9.29,-38.05,-38.43,0,*56
1484856122.77,10514,3.38,74114.3,-9.29,-38.23,-38.49,0,*5F
1484856124.04,10515,3.38,74114.3,-9.29,-38.29,-38.61,0,*5E
1484856125.3,10516,3.38,74114.8,-9.29,-38.23,-38.61,0,*57
1484856126.52,10517,3.38,74114.5,-9.27,-38.17,-38.55,0,*58
1484856127.76,10518,3.38,74112.8,-9.23,-38.23,-38.55,0,*54
1484856128.98,10519,3.38,74110.0,-9.27,-38.17,-38.35,0,*50
1484856130.2,10520,3.38,74112.5,-9.27,-38.17,-38.43,0,*5B
1484856131.42,10521,3.38,74108.0,-9.27,-38.17,-38.35,0,*5B
1484856132.66,10522,3.38,74114.5,-9.27,-38.23,-38.55,0,*59
1484856133.9,10523,3.38,74114.0,-9.27,-38.23,-38.61,0,*5F
1484856135.14,10524,3.38,74114.0,-9.27,-38.23,-38.61,0,*58
1484856136.36,10525,3.38,74114.5,-9.27,-38.17,-38.55,0,*59
1484856137.58,10526,3.38,74116.3,-9.27,-38.17,-38.55,0,*5A
1484856138.81,10527,3.38,74114.3,-9.27,-38.23,-38.73,0,*58
1484856140.03,10528,3.38,74108.0,-9.27,-38.17,-38.61,0,*53
1484856141.24,10529,3.38,74114.0,-9.23,-38.17,-38.43,0,*56
1484856142.46,10530,3.38,74114.5,-9.27,-38.17,-38.55,0,*5D
1484856143.69,10531,3.38,74108.5,-9.27,-38.23,-38.73,0,*5F
1484856144.9,10532,3.38,74114.3,-9.23,-38.17,-38.73,0,*5F
1484856146.1,10533,3.38,74114.0,-9.23,-38.55,-38.73,0,*58
1484856147.34,10534,3.38,74112.5,-9.27,-38.23,-38.61,0,*59
1484856148.56,10535,3.38,74118.0,-9.27,-38.17,-38.35,0,*5E
1484856149.78,10536,3.38,74112.3,-9.27,-38.05,-38.43,0,*5F
1484856150.99,10537,3.38,74112.3,-9.27,-38.05,-38.55,0,*59
1484856152.21,10538,3.38,74114.5,-9.27,-38.35,-38.61,0,*52
1484856153.41,10539,3.38,74112.8,-9.23,-38.35,-38.73,0,*54
1484856154.64,10540,3.38,74110.0,-9.23,-38.35,-38.79,0,*50
1484856155.87,10541,3.38,74118.5,-9.23,-38.23,-38.61,0,*5F
1484856157.09,10542,3.38,74112.8,-9.27,-38.43,-38.73,0,*5D
1484856158.29,10543,3.38,74114.8,-9.27,-38.35,-38.73,0,*5D
1484856159.5,10544,3.38,74112.0,-9.27,-38.55,-38.73,0,*5C
1484856160.71,10545,3.38,74110.8,-9.23,-38.43,-38.73,0,*5E
1484856161.92,10546,3.38,74114.0,-9.27,-38.43,-38.73,0,*59
1484856163.12,10547,3.38,74114.8,-9.23,-38.35,-38.73,0,*5D
1484856164.34,10548,3.38,74116.5,-9.23,-38.23,-38.73,0,*55
1484856165.55,10549,3.38,74114.0,-9.27,-38.35,-38.73,0,*57
1484856166.79,10550,3.38,74112.8,-9.27,-38.55,-38.79,0,*53
1484856168.03,10551,3.38,74114.3,-9.27,-38.23,-38.61,0,*5A
1484856169.23,10552,3.38,74116.3,-9.23,-38.35,-38.73,0,*59
1484856170.44,10553,3.38,74112.8,-9.27,-38.35,-38.73,0,*5C
1484856171.68,10554,3.38,74116.3,-9.27,-38.23,-38.61,0,*5F
1484856172.9,10555,3.38,74116.3,-9.27,-38.17,-38.61,0,*59
1484856174.14,10556,3.38,74116.5,-9.27,-38.43,-38.79,0,*52
1484856175.38,10557,3.38,74118.5,-9.27,-38.61,-38.79,0,*53
1484856176.59,10558,3.38,74112.5,-9.27,-38.43,-38.73,0,*56
1484856177.8,10559,3.38,74114.5,-9.27,-38.35,-38.73,0,*56
1484856179.01,10560,3.38,74112.8,-9.27,-38.35,-38.73,0,*5C
1484856180.22,10561,3.38,74118.0,-9.27,-38.43,-38.73,0,*5C
1484856181.46,10562,3.38,74112.0,-9.27,-38.35,-38.79,0,*54
1484856182.66,10563,3.38,74112.8,-9.27,-38.35,-38.73,0,*5F
1484856183.87,10564,3.38,74112.8,-9.27,-38.43,-38.73,0,*59
1484856185.11,10565,3.38,74116.5,-9.23,-38.23,-38.55,0,*5E
1484856186.32,10566,3.38,74118.8,-9.27,-38.43,-38.73,0,*5B
1484856187.55,10567,3.38,74116.3,-9.23,-38.23,-38.61,0,*5B
1484856188.76,10568,3.38,74112.8,-9.23,-38.43,-38.73,0,*51
1484856190.0,10569,3.38,74112.0,-9.27,-38.43,-38.79,0,*5E
1484856191.24,10570,3.38,74112.3,-9.27,-38.55,-38.79,0,*51
1484856192.45,10571,3.38,74118.0,-9.23,-38.61,-38.97,0,*53
1484856193.69,10572,3.38,74112.8,-9.27,-38.61,-38.91,0,*52
1484856194.93,10573,3.38,74116.3,-9.27,-38.55,-38.79,0,*52
1484856196.19,10574,3.38,74112.8,-9.29,-38.67,-38.97,0,*5A
1484856197.46,10575,3.38,74112.8,-9.29,-38.85,-39.03,0,*5B
1484856198.68,10576,3.38,74110.5,-9.27,-38.73,-39.09,0,*55
1484856199.89,10577,3.38,74112.3,-9.27,-38.73,-39.09,0,*54
1484856201.13,10578,3.38,74116.3,-9.27,-38.43,-38.79,0,*5E
1484856202.35,10579,3.38,74114.0,-9.27,-38.05,-38.35,0,*55
1484856203.57,10580,3.38,74114.8,-9.27,-38.05,-38.43,0,*52
1484856204.79,10581,3.38,74114.0,-9.27,-38.05,-38.55,0,*54
1484856206.0,10582,3.38,74108.5,-9.27,-38.17,-38.61,0,*53
1484856207.23,10583,3.38,74112.5,-9.23,-38.23,-38.73,0,*52
1484856208.45,10584,3.38,74120.5,-9.27,-38.35,-38.61,0,*55
1484856209.66,10585,3.38,74118.5,-9.27,-38.55,-38.73,0,*51
1484856210.87,10586,3.44,74120.5,-9.27,-38.43,-38.73,0,*55
1484856212.08,10587,3.38,74112.0,-9.27,-38.43,-38.73,0,*54
1484856213.31,10588,3.38,74114.5,-9.23,-38.43,-38.79,0,*55
1484856214.55,10589,3.38,74114.0,-9.27,-38.61,-38.79,0,*50
1484856215.77,10590,3.44,74112.3,-9.27,-38.35,-38.61,0,*50
1484856216.98,10591,3.38,74112.3,-9.27,-38.35,-38.73,0,*52
1484856218.21,10592,3.38,74114.3,-9.27,-38.35,-38.79,0,*5B
1484856219.48,10593,3.38,74116.0,-9.29,-38.23,-38.61,0,*5A
1484856220.75,10594,3.38,74114.3,-9.29,-38.43,-38.67,0,*5D
1484856221.98,10595,3.38,74114.5,-9.27,-38.23,-38.73,0,*51
1484856223.22,10596,3.44,74118.0,-9.27,-38.23,-38.61,0,*51
1484856224.43,10597,3.38,74116.8,-9.27,-38.35,-38.73,0,*54
1484856225.66,10598,3.38,74116.0,-9.27,-38.23,-38.73,0,*5C
1484856226.9,10599,3.44,74118.5,-9.27,-38.55,-38.79,0,*56
1484856228.15,10600,3.38,74116.0,-9.27,-38.55,-38.79,0,*55
1484856229.43,10601,3.38,74116.5,-9.29,-38.23,-38.67,0,*54
1484856230.67,10602,3.38,74116.0,-9.23,-38.23,-38.55,0,*5C
1484856231.91,10603,3.38,74116.5,-9.27,-38.23,-38.55,0,*59
1484856233.13,10604,3.38,74116.5,-9.27,-38.35,-38.61,0,*5E
1484856234.34,10605,3.38,74114.8,-9.27,-38.43,-38.73,0,*5D
1484856235.58,10606,3.38,74118.5,-9.27,-38.55,-38.91,0,*55
1484856236.79,10607,3.38,74118.3,-9.27,-38.73,-38.97,0,*56
1484856238.0,10608,3.38,74116.3,-9.27,-38.61,-38.97,0,*5A
1484856239.25,10609,3.38,74118.8,-9.27,-38.55,-38.91,0,*5A
1484856240.46,10610,3.44,74116.8,-9.31,-38.61,-38.97,0,*54
1484856241.73,10611,3.44,74118.0,-9.29,-38.43,-38.79,0,*5C
1484856242.99,10612,3.38,74118.0,-9.29,-38.43,-38.67,0,*50
1484856244.29,10613,3.44,74120.0,-9.29,-38.49,-38.79,0,*54
1484856245.56,10614,3.44,74118.0,-9.29,-38.67,-38.97,0,*5F
1484856246.82,10615,3.38,74112.3,-9.29,-38.67,-38.85,0,*5D
1484856248.09,10616,3.38,74114.3,-9.29,-38.43,-38.67,0,*54
1484856249.35,10617,3.38,74118.3,-9.29,-38.23,-38.61,0,*55
1484856250.62,10618,3.38,74114.5,-9.29,-38.29,-38.61,0,*50
1484856251.92,10619,3.44,74116.8,-9.29,-38.29,-38.67,0,*57
1484856253.19,10620,3.44,74116.3,-9.29,-38.43,-38.79,0,*5E
1484856254.46,10621,3.38,74118.5,-9.29,-38.61,-38.79,0,*5F
1484856255.75,10622,3.44,74122.0,-9.29,-38.49,-38.79,0,*56
1484856257.05,10623,3.38,74116.5,-9.29,-38.29,-38.67,0,*5E
1484856258.27,10624,3.38,74116.5,-9.27,-38.17,-38.43,0,*5C
1484856259.47,10625,3.38,74118.8,-9.27,-38.35,-38.73,0,*5E
1484856260.72,10626,3.38,74118.3,-9.27,-38.61,-38.91,0,*50
1484856261.98,10627,3.44,74122.0,-9.29,-38.67,-38.97,0,*5F
1484856263.22,10628,3.44,74116.0,-9.27,-38.55,-38.79,0,*5F
1484856264.46,10629,3.38,74118.0,-9.27,-38.23,-38.61,0,*56
1484856265.76,10630,3.44,74120.8,-9.29,-38.49,-38.79,0,*55
1484856267.03,10631,3.44,74118.0,-9.29,-38.43,-38.79,0,*5E
1484856268.32,10632,3.38,74118.5,-9.29,-38.23,-38.67,0,*54
1484856269.61,10633,3.44,74120.5,-9.29,-38.49,-38.79,0,*56
1484856270.91,10634,3.44,74120.3,-9.29,-38.29,-38.67,0,*58
1484856272.2,10635,3.38,74116.5,-9.29,-38.29,-38.79,0,*56
1484856273.5,10636,3.44,74116.3,-9.29,-38.49,-38.79,0,*53
1484856274.77,10637,3.44,74116.3,-9.29,-38.43,-38.79,0,*58
1484856276.01,10638,3.44,74120.0,-9.31,-38.61,-38.79,0,*5E
1484856277.31,10639,3.44,74120.3,-9.29,-38.49,-38.79,0,*5C
1484856278.52,10640,3.44,74118.8,-9.27,-38.43,-38.73,0,*5C
1484856279.76,10641,3.44,74118.8,-9.27,-38.55,-38.79,0,*50
1484856281.0,10642,3.44,74118.0,-9.27,-38.23,-38.73,0,*58
1484856282.29,10643,3.44,74122.0,-9.29,-38.29,-38.79,0,*57
1484856283.53,10644,3.44,74118.8,-9.27,-38.55,-38.79,0,*55
1484856284.8,10645,3.44,74116.8,-9.31,-38.49,-38.67,0,*51
1484856286.02,10646,3.44,74116.0,-9.31,-38.61,-38.85,0,*54
1484856287.27,10647,3.44,74118.0,-9.29,-38.61,-38.85,0,*5C
1484856288.53,10648,3.44,74122.0,-9.29,-38.67,-38.85,0,*55
1484856289.78,10649,3.44,74116.0,-9.29,-38.61,-38.97,0,*51
1484856291.04,10650,3.44,74120.5,-9.29,-38.61,-39.03,0,*55
1484856292.31,10651,3.44,74116.0,-9.29,-38.61,-39.03,0,*54
1484856293.57,10652,3.44,74120.0,-9.29,-38.67,-38.97,0,*5D
1484856294.86,10653,3.44,74118.5,-9.29,-38.79,-39.03,0,*5F
1484856296.13,10654,3.44,74118.8,-9.31,-38.79,-39.15,0,*56
1484856297.34,10655,3.44,74118.8,-9.31,-38.61,-38.85,0,*56
1484856298.58,10656,3.44,74118.3,-9.31,-38.67,-38.85,0,*53
1484856299.8,10657,3.44,74120.0,-9.31,-38.61,-38.85,0,*54
1484856301.07,10658,3.44,74118.0,-9.31,-38.23,-38.79,0,*5E
1484856302.36,10659,3.44,74122.0,-9.29,-38.49,-38.79,0,*5A
1484856303.64,10660,3.44,74118.3,-9.29,-38.49,-38.97,0,*50
1484856304.88,10661,3.44,74118.0,-9.31,-38.49,-38.85,0,*5B
1484856306.18,10662,3.38,74112.0,-9.29,-38.29,-38.67,0,*5B
1484856307.42,10663,3.44,74116.3,-9.31,-38.43,-38.79,0,*50
1484856308.69,10664,3.44,74116.5,-9.31,-38.49,-38.79,0,*5D
1484856309.93,10665,3.44,74118.0,-9.33,-38.35,-38.85,0,*56
1484856311.2,10666,3.44,74118.8,-9.33,-38.49,-38.85,0,*5E
1484856312.43,10667,3.44,74116.8,-9.33,-38.35,-38.73,0,*5D
1484856313.72,10668,3.44,74118.5,-9.29,-38.29,-38.67,0,*51
1484856314.96,10669,3.44,74116.5,-9.31,-38.43,-38.79,0,*5A
1484856316.24,10670,3.44,74122.0,-9.31,-38.49,-38.79,0,*58
1484856317.48,10671,3.44,74116.0,-9.31,-38.43,-38.79,0,*53
1484856318.72,10672,3.44,74116.3,-9.31,-38.49,-38.85,0,*59
1484856319.94,10673,3.44,74118.3,-9.31,-38.61,-38.85,0,*52
1484856321.24,10674,3.44,74114.5,-9.29,-38.29,-38.67,0,*5C
1484856322.53,10675,3.44,74118.0,-9.29,-38.29,-38.67,0,*5D
1484856323.8,10676,3.38,74114.8,-9.31,-38.29,-38.79,0,*58
1484856325.04,10677,3.44,74118.5,-9.31,-38.29,-38.61,0,*50
1484856326.31,10678,3.44,74118.5,-9.31,-38.29,-38.67,0,*59
1484856327.61,10679,3.44,74118.8,-9.29,-38.29,-38.67,0,*51
1484856328.85,10680,3.44,74118.3,-9.31,-38.49,-38.85,0,*54
1484856330.12,10681,3.44,74118.3,-9.31,-38.29,-38.79,0,*50
1484856331.39,10682,3.44,74118.0,-9.31,-38.29,-38.67,0,*5C
1484856332.65,10683,3.44,74116.8,-9.31,-38.23,-38.49,0,*5B
1484856333.92,10684,3.44,74120.8,-9.31,-38.29,-38.79,0,*55
1484856335.19,10685,3.44,74118.8,-9.29,-38.43,-38.67,0,*5E
1484856336.45,10686,3.44,74120.0,-9.31,-38.23,-38.67,0,*52
1484856337.69,10687,3.44,74116.3,-9.31,-38.43,-38.67,0,*55
1484856338.98,10688,3.44,74118.0,-9.29,-38.23,-38.79,0,*5A
1484856340.25,10689,3.44,74116.8,-9.29,-38.43,-38.67,0,*52
1484856341.51,10690,3.44,74118.3,-9.31,-38.23,-38.67,0,*55
1484856342.78,10691,3.44,74116.8,-9.29,-38.23,-38.61,0,*5B
1484856344.08,10692,3.44,74116.8,-9.29,-38.49,-38.79,0,*5D
1484856345.32,10693,3.44,74116.8,-9.31,-38.43,-38.79,0,*5F
1484856346.54,10694,3.44,74120.3,-9.31,-38.61,-38.85,0,*5B
1484856347.75,10695,3.44,74118.3,-9.31,-38.61,-38.97,0,*59
1484856348.99,10696,3.44,74120.0,-9.31,-38.29,-38.85,0,*55
1484856350.26,10697,3.44,74118.3,-9.31,-38.23,-38.67,0,*52
1484856351.56,10698,3.44,74118.5,-9.29,-38.49,-38.79,0,*57
1484856352.79,10699,3.44,74116.0,-9.31,-38.67,-38.97,0,*53
1484856354.01,10700,3.44,74120.3,-9.31,-38.43,-38.85,0,*57
1484856355.25,10701,3.44,74118.3,-9.31,-38.29,-38.61,0,*50
1484856356.55,10702,3.44,74116.3,-9.29,-38.29,-38.79,0,*53
1484856357.79,10703,3.44,74118.0,-9.29,-38.43,-38.85,0,*5D
1484856359.04,10704,3.44,74118.0,-9.31,-38.49,-38.85,0,*59
1484856360.34,10705,3.44,74120.8,-9.29,-38.49,-38.79,0,*52
1484856361.6,10706,3.44,74120.0,-9.31,-38.23,-38.49,0,*57
1484856362.87,10707,3.44,74116.8,-9.31,-38.29,-38.67,0,*50
1484856364.14,10708,3.44,74120.3,-9.29,-38.29,-38.61,0,*50
1484856365.39,10709,3.44,74118.0,-9.31,-38.49,-38.85,0,*54
1484856366.64,10710,3.44,74118.5,-9.31,-38.49,-38.85,0,*5C
1484856367.9,10711,3.44,74118.5,-9.29,-38.67,-38.85,0,*58
1484856369.14,10712,3.44,74122.3,-9.31,-38.43,-38.79,0,*57
1484856370.38,10713,3.44,74118.3,-9.31,-38.43,-38.79,0,*56
1484856371.68,10714,3.44,74116.5,-9.29,-38.49,-38.79,0,*52
1484856372.95,10715,3.44,74120.3,-9.31,-38.49,-38.79,0,*5A
1484856374.22,10716,3.44,74118.8,-9.31,-38.49,-38.79,0,*59
1484856375.46,10717,3.44,74122.5,-9.31,-38.43,-38.79,0,*52
1484856376.7,10718,3.44,74120.3,-9.31,-38.43,-38.79,0,*5D
1484856377.95,10719,3.44,74118.5,-9.31,-38.49,-38.85,0,*55
1484856379.16,10720,3.44,74118.3,-9.31,-38.61,-38.97,0,*56
1484856380.38,10721,3.44,74116.3,-9.31,-38.43,-38.85,0,*54
1484856381.62,10722,3.44,74112.8,-9.31,-38.43,-38.67,0,*5B
1484856382.89,10723,3.44,74116.3,-9.31,-38.23,-38.49,0,*50
1484856384.15,10724,3.44,74116.3,-9.31,-38.11,-38.29,0,*50
1484856385.39,10725,3.44,74118.5,-9.31,-38.23,-38.61,0,*5C
1484856386.66,10726,3.44,74122.0,-9.29,-38.23,-38.61,0,*56
1484856387.9,10727,3.44,74122.5,-9.31,-38.29,-38.61,0,*54
1484856389.2,10728,3.44,74120.8,-9.29,-38.29,-38.79,0,*5B
1484856390.44,10729,3.44,74116.0,-9.31,-38.43,-38.79,0,*5F
1484856391.71,10730,3.44,74120.0,-9.31,-38.49,-38.79,0,*5D
1484856392.95,10731,3.44,74118.3,-9.31,-38.61,-38.79,0,*56
1484856394.2,10732,3.44,74120.3,-9.31,-38.43,-38.79,0,*55
1484856395.44,10733,3.44,74118.8,-9.31,-38.43,-38.79,0,*54
1484856396.71,10734,3.44,74120.0,-9.31,-38.49,-38.79,0,*59
1484856397.95,10735,3.44,74118.0,-9.31,-38.61,-38.79,0,*52
1484856399.22,10736,3.44,74118.3,-9.31,-38.79,-39.03,0,*54
1484856400.43,10737,3.44,74120.3,-9.31,-38.61,-38.97,0,*50
1484856401.67,10738,3.44,74120.8,-9.31,-38.67,-38.97,0,*59
1484856402.92,10739,3.44,74120.3,-9.31,-38.67,-39.03,0,*54
1484856404.16,10740,3.44,74116.8,-9.31,-38.67,-38.97,0,*56
1484856405.42,10741,3.44,74118.0,-9.33,-38.73,-39.03,0,*5C
1484856406.63,10742,3.44,74118.3,-9.35,-38.73,-39.09,0,*53
1484856407.89,10743,3.44,74116.8,-9.33,-38.73,-39.23,0,*5C
1484856409.14,10744,3.44,74116.5,-9.33,-38.85,-39.09,0,*5A
1484856410.4,10745,3.44,74120.8,-9.35,-38.91,-39.23,0,*50
1484856411.68,10746,3.44,74120.5,-9.33,-38.67,-38.91,0,*54
1484856412.95,10747,3.44,74118.5,-9.33,-38.55,-38.91,0,*54
1484856414.19,10748,3.44,74122.5,-9.35,-38.55,-39.03,0,*57
1484856415.48,10749,3.44,74118.3,-9.33,-38.49,-38.91,0,*57
1484856416.7,10750,3.44,74122.0,-9.35,-38.55,-38.85,0,*51
1484856417.96,10751,3.44,74122.5,-9.33,-38.73,-39.03,0,*5D
1484856419.24,10752,3.44,74120.8,-9.33,-38.67,-38.91,0,*51
1484856420.51,10753,3.44,74118.8,-9.33,-38.73,-38.91,0,*55
1484856421.76,10754,3.44,74120.0,-9.33,-38.73,-39.03,0,*58
1484856423.01,10755,3.44,74122.0,-9.33,-38.85,-39.09,0,*5A
1484856424.25,10756,3.44,74120.0,-9.35,-39.03,-39.09,0,*50
1484856425.5,10757,3.44,74116.5,-9.35,-39.03,-39.09,0,*51
1484856426.73,10758,3.44,74120.5,-9.35,-38.73,-38.91,0,*58
1484856427.99,10759,3.44,74120.8,-9.35,-38.67,-39.03,0,*56
1484856429.23,10760,3.44,74118.3,-9.35,-38.85,-39.03,0,*50
1484856430.5,10761,3.44,74120.5,-9.35,-38.91,-39.23,0,*56
1484856431.74,10762,3.44,74116.0,-9.35,-38.55,-38.91,0,*55
1484856432.98,10763,3.44,74116.0,-9.33,-38.55,-38.85,0,*57
1484856434.24,10764,3.44,74116.0,-9.35,-38.67,-39.03,0,*58
1484856435.5,10765,3.44,74120.3,-9.35,-38.67,-38.91,0,*53
1484856436.79,10766,3.44,74120.8,-9.33,-38.67,-38.91,0,*56
1484856438.04,10767,3.44,74122.0,-9.35,-38.67,-39.03,0,*5B
1484856439.3,10768,3.44,74116.3,-9.35,-38.91,-39.23,0,*5F
1484856440.57,10769,3.44,74120.8,-9.35,-39.03,-39.29,0,*5E
1484856441.8,10770,3.44,74116.5,-9.39,-38.73,-39.15,0,*53
1484856443.07,10771,3.44,74118.3,-9.37,-38.43,-38.91,0,*52
1484856444.28,10772,3.44,74120.8,-9.39,-38.61,-38.97,0,*59
1484856445.52,10773,3.44,74120.5,-9.37,-38.73,-38.97,0,*55
1484856446.76,10774,3.44,74120.0,-9.37,-38.73,-39.09,0,*54
1484856448.0,10775,3.44,74120.5,-9.39,-38.79,-39.09,0,*51
1484856449.24,10776,3.44,74116.3,-9.37,-38.73,-38.97,0,*50
1484856450.48,10777,3.44,74122.3,-9.39,-38.55,-38.91,0,*5D
1484856451.69,10778,3.44,74122.0,-9.39,-38.55,-38.97,0,*54
1484856452.98,10779,3.44,74118.8,-9.37,-38.79,-39.15,0,*5E
1484856454.22,10780,3.44,74122.0,-9.37,-38.73,-38.97,0,*59
1484856455.49,10781,3.44,74118.3,-9.37,-38.55,-38.79,0,*5C
1484856456.72,10782,3.44,74120.0,-9.37,-38.43,-38.73,0,*52
1484856457.99,10783,3.44,74118.3,-9.37,-38.73,-38.91,0,*5C
1484856459.26,10784,3.44,74118.5,-9.37,-38.79,-38.97,0,*57
1484856460.5,10785,3.44,74116.8,-9.37,-38.73,-38.97,0,*5C
1484856461.73,10786,3.44,74116.0,-9.39,-38.79,-38.97,0,*5B
1484856462.94,10787,3.44,74116.8,-9.39,-38.73,-39.09,0,*56
1484856464.16,10788,3.44,74116.0,-9.39,-38.73,-39.09,0,*59
1484856465.37,10789,3.44,74120.0,-9.39,-38.73,-39.09,0,*58
1484856466.66,10790,3.44,74120.3,-9.41,-38.79,-39.03,0,*5F
1484856467.9,10791,3.44,74122.5,-9.39,-38.73,-39.15,0,*5C
1484856469.16,10792,3.44,74118.0,-9.39,-38.79,-39.15,0,*55
1484856470.45,10793,3.44,74120.3,-9.37,-38.91,-39.29,0,*53
1484856471.66,10794,3.44,74120.5,-9.39,-38.73,-38.97,0,*52
1484856472.9,10795,3.44,74120.5,-9.39,-38.43,-38.91,0,*56
1484856474.14,10796,3.44,74118.8,-9.39,-38.61,-38.91,0,*55
1484856475.34,10797,3.44,74118.3,-9.39,-38.73,-38.97,0,*51
1484856476.55,10798,3.44,74120.0,-9.39,-38.73,-38.97,0,*5E
1484856477.79,10799,3.44,74116.8,-9.39,-38.61,-38.91,0,*5A
1484856479.03,10800,3.44,74122.3,-9.39,-38.55,-38.79,0,*54
1484856480.3,10801,3.44,74118.8,-9.41,-38.67,-38.85,0,*58
1484856481.54,10802,3.44,74120.3,-9.41,-38.61,-38.97,0,*5E
1484856482.81,10803,3.44,74118.8,-9.41,-38.49,-38.97,0,*55
1484856484.1,10804,3.5,74124.3,-9.41,-38.67,-39.15,0,*55
1484856485.34,10805,3.44,74122.8,-9.41,-38.61,-38.85,0,*5A
1484856486.59,10806,3.44,74120.5,-9.41,-38.61,-38.97,0,*5A
1484856487.82,10807,3.44,74122.5,-9.39,-38.79,-38.97,0,*5D
1484856489.04,10808,3.5,74122.5,-9.39,-38.61,-38.97,0,*5B
1484856490.27,10809,3.5,74122.3,-9.39,-38.73,-38.91,0,*5F
1484856491.54,10810,3.44,74116.5,-9.41,-38.85,-39.03,0,*5B
1484856492.81,10811,3.44,74118.3,-9.41,-38.67,-38.85,0,*59
1484856494.05,10812,3.44,74116.3,-9.41,-38.61,-38.97,0,*5F
1484856495.34,10813,3.44,74116.8,-9.41,-38.67,-39.15,0,*53
1484856496.61,10814,3.44,74114.5,-9.41,-38.79,-38.97,0,*50
1484856497.85,10815,3.5,74120.5,-9.41,-38.61,-38.97,0,*58
1484856499.09,10816,3.44,74116.3,-9.39,-38.55,-38.91,0,*55
1484856500.36,10817,3.44,74122.0,-9.41,-38.43,-38.67,0,*55
1484856501.59,10818,3.44,74118.0,-9.39,-38.55,-38.91,0,*5B
1484856502.83,10819,3.44,74116.0,-9.39,-38.55,-38.79,0,*5C
1484856504.07,10820,3.44,74120.8,-9.39,-38.61,-38.91,0,*57
1484856505.31,10821,3.44,74116.8,-9.39,-38.55,-38.91,0,*51
1484856506.55,10822,3.44,74118.3,-9.39,-38.55,-38.91,0,*52
1484856507.81,10823,3.44,74122.0,-9.41,-38.67,-38.97,0,*5B
1484856509.05,10824,3.44,74116.8,-9.41,-38.61,-38.85,0,*59